MACSAT 1 (M 1)

Satellite information

Favourite Embed

Satellite Type and Status

PAYLOADIN ORBIT

Key statistics

Satellite MACSAT 1 (M 1) at a glance.

Uptime

12843

Days in orbit

Revolutions

≈ 14.7

Per day

Orbit

LEO

Low Earth Orbit

Inclination

89.7

Latest

Satellite identification and parameters

Extended collection of information and parameters for MACSAT 1 (M 1).

Object identification

Identified? True

Debris? False

Object name: MACSAT 1 (M 1)

International designator: 1990-043A

Object number (NORAD): 20607

Object ID (CCSDS): 20607

Country: UNITED STATES OF AMERICA (US)

Current information (Y/N): Y

RCS size: MEDIUM

Orbital parameters

Period: 97.654 minutes

Inclination: 89.7362 deg

SMA: 7024.598 km

Apoapsis: 710.951 km

Periapsis: 581.975 km

RAAN: 255.3621 deg

Eccentricy: 0.0091803

Argument of periapsis: 144.1879 deg

Mean anomaly: 216.5546 deg

Mean motion: 14.745875 rev/day

Mean motion (dot): 0.00000573 rev/day2

B* drag term: 0.000077712 1/REarth

Two-line elements (TLE)

Creation date: July 6, 2025, 6:05 p.m.

Reference frame: TEME

Reference center: EARTH

Epoch: July 6, 2025, 2:46 p.m. UTC

TLE line 0: 0 MACSAT 1 (M 1)

TLE line 1: 1 20607U 90043A 25187.61580479 .00000573 00000-0 77712-4 0 9997

TLE line 2: 2 20607 89.7362 255.3621 0091803 144.1879 216.5546 14.74587500863446

Live tracking on map

Real-time ground track for satellite MACSAT 1 (M 1).

In-orbit conjunctions

A list of the most updated potential collisions computed for object MACSAT 1 (M 1).

Target Orbit TCA Probability of collision Miss distance Type
CZ-4 DEB SSO 2025-01-19 16:24:19 0.0004592165 243.0 (m) DEBRIS
COSMOS 2251 DEB LEO 2024-09-15 08:25:55 0.0002471188 272.0 (m) DEBRIS

Associated space launch

Experimental communications satellites for the US military

MACSAT 1 (M 1) was lifted into orbit during the mission ‘Scout G-1 | MACSAT 1 & 2’, on board a Scout G-1 space rocket.

The launch took place on May 9, 1990, 5:50 p.m. from Space Launch Complex 5.

For more information about the launch, click the button.

Launch to space Scout G-1 | MACSAT 1 & 2
Scout G-1 | MACSAT 1 & 2

Agency: N/A

Status: Launch Successful

Launch date: May 9, 1990, 5:50 p.m. UTC

Rocket: Scout G-1

Launch pad: Space Launch Complex 5

Location: Vandenberg SFB, CA, USA

...

Latest news about this satellite

There are no fresh news available about this satellite. Check back as we update our databases every day.


Newsletter sign-up

Weekly statistics, charts and insights to help you stay on top of the space industry.